Simultaneous Nadir Overpasses (SNOs) Predictions

Prediction of SNOs over PacNW region [( 10.00, 139.50) to ( 22.70, 165.60)] between AQUA and NPP Satellites:

Table of predicted SNOs over PacNW region for the next 30.0 days since TLE Epoch: 8/26/2022
Index Date (AQUA) Time (AQUA) AQUA Lat,Lon Date (NPP) Time (NPP) NPP Lat,Lon Distance(km) Time Diff (sec)
1 08/31/2022 02:50:18 22.69, 159.01 08/31/2022 02:49:56 21.93, 155.36 385.06 22
2 09/02/2022 16:28:30 10.79, 139.50 09/02/2022 16:25:13 10.99, 136.77 299.90 197
3 09/08/2022 03:34:48 12.17, 149.60 09/08/2022 03:37:42 11.20, 145.21 489.76 174
4 09/10/2022 15:36:23 13.14, 152.93 09/10/2022 15:33:45 13.74, 150.08 315.56 158
5 09/16/2022 02:42:44 10.10, 162.96 09/16/2022 02:46:12 8.36, 158.54 523.35 208
6 09/18/2022 16:21:08 22.60, 143.29 09/18/2022 16:21:49 23.38, 139.71 376.99 41
